TimeEDT,TemperatureF,Dew PointF,Humidity,Sea Level PressureIn,VisibilityMPH,Wind Direction,Wind SpeedMPH,Gust SpeedMPH,PrecipitationIn,Events,Conditions,WindDirDegrees,DateUTC
12:55 AM,62.6,60.8,94,30.24,10.0,Calm,Calm,-,N/A,,Mostly Cloudy,0,2012-10-04 04:55:00
1:15 AM,62.6,60.8,94,30.24,10.0,WSW,4.6,-,N/A,,Partly Cloudy,250,2012-10-04 05:15:00
1:35 AM,62.6,60.8,94,30.25,10.0,Calm,Calm,-,N/A,,Clear,0,2012-10-04 05:35:00
1:55 AM,62.6,60.8,94,30.24,10.0,Calm,Calm,-,N/A,,Clear,0,2012-10-04 05:55:00
2:15 AM,60.8,60.8,100,30.24,10.0,West,3.5,-,N/A,,Clear,270,2012-10-04 06:15:00
2:35 AM,60.8,60.8,100,30.24,10.0,Calm,Calm,-,N/A,,Partly Cloudy,0,2012-10-04 06:35:00
2:55 AM,60.8,60.8,100,30.24,10.0,West,3.5,-,N/A,,Partly Cloudy,270,2012-10-04 06:55:00
3:15 AM,60.8,60.8,100,30.24,10.0,West,3.5,-,N/A,,Scattered Clouds,280,2012-10-04 07:15:00
3:35 AM,60.8,60.8,100,30.25,10.0,Calm,Calm,-,N/A,,Mostly Cloudy,0,2012-10-04 07:35:00
3:55 AM,59.0,59.0,100,30.25,10.0,Calm,Calm,-,N/A,,Mostly Cloudy,0,2012-10-04 07:55:00
4:15 AM,60.8,60.8,100,30.25,10.0,Calm,Calm,-,N/A,,Scattered Clouds,0,2012-10-04 08:15:00
4:35 AM,60.8,60.8,100,30.25,10.0,West,4.6,-,N/A,,Mostly Cloudy,280,2012-10-04 08:35:00
4:55 AM,60.8,60.8,100,30.25,10.0,Calm,Calm,-,N/A,,Mostly Cloudy,0,2012-10-04 08:55:00
5:15 AM,60.8,60.8,100,30.26,10.0,West,5.8,-,N/A,,Mostly Cloudy,270,2012-10-04 09:15:00
5:35 AM,59.0,59.0,100,30.26,10.0,West,4.6,-,N/A,,Scattered Clouds,270,2012-10-04 09:35:00
5:55 AM,59.0,59.0,100,30.27,10.0,Calm,Calm,-,N/A,,Partly Cloudy,0,2012-10-04 09:55:00
6:15 AM,59.0,59.0,100,30.28,8.0,Calm,Calm,-,N/A,,Mostly Cloudy,0,2012-10-04 10:15:00
6:35 AM,59.0,59.0,100,30.27,9.0,Calm,Calm,-,N/A,,Mostly Cloudy,0,2012-10-04 10:35:00
6:55 AM,59.0,59.0,100,30.28,10.0,Calm,Calm,-,N/A,,Scattered Clouds,0,2012-10-04 10:55:00
7:15 AM,59.0,59.0,100,30.28,10.0,West,3.5,-,N/A,,Partly Cloudy,270,2012-10-04 11:15:00
7:35 AM,57.2,57.2,100,30.29,10.0,Calm,Calm,-,N/A,,Partly Cloudy,0,2012-10-04 11:35:00
7:55 AM,57.2,57.2,100,30.29,10.0,West,3.5,-,N/A,,Clear,260,2012-10-04 11:55:00
8:15 AM,57.2,57.2,100,30.30,5.0,West,3.5,-,N/A,,Unknown,260,2012-10-04 12:15:00
8:35 AM,57.2,57.2,100,30.30,9.0,Variable,3.5,-,N/A,,Partly Cloudy,0,2012-10-04 12:35:00
8:55 AM,59.0,59.0,100,30.31,10.0,Calm,Calm,-,N/A,,Scattered Clouds,0,2012-10-04 12:55:00
9:15 AM,59.0,59.0,100,30.31,10.0,Calm,Calm,-,N/A,,Mostly Cloudy,0,2012-10-04 13:15:00
9:35 AM,60.8,60.8,100,30.32,10.0,West,4.6,-,N/A,,Scattered Clouds,270,2012-10-04 13:35:00
9:55 AM,60.8,60.8,100,30.32,10.0,West,3.5,-,N/A,,Scattered Clouds,260,2012-10-04 13:55:00
10:15 AM,62.6,60.8,94,30.32,10.0,WNW,5.8,-,N/A,,Clear,290,2012-10-04 14:15:00
10:35 AM,62.6,59.0,88,30.32,10.0,Variable,4.6,-,N/A,,Clear,0,2012-10-04 14:35:00
10:55 AM,64.4,59.0,83,30.32,10.0,Variable,4.6,-,N/A,,Scattered Clouds,0,2012-10-04 14:55:00
11:15 AM,64.4,57.2,77,30.32,10.0,Variable,5.8,-,N/A,,Mostly Cloudy,0,2012-10-04 15:15:00
11:35 AM,66.2,57.2,73,30.31,10.0,Variable,6.9,-,N/A,,Partly Cloudy,0,2012-10-04 15:35:00
11:55 AM,64.4,55.4,73,30.32,10.0,Variable,4.6,-,N/A,,Partly Cloudy,0,2012-10-04 15:55:00
12:35 PM,66.2,55.4,68,30.31,10.0,WNW,9.2,-,N/A,,Mostly Cloudy,290,2012-10-04 16:35:00
12:55 PM,69.8,55.4,60,30.31,10.0,NW,6.9,-,N/A,,Partly Cloudy,310,2012-10-04 16:55:00
1:15 PM,66.2,53.6,64,30.30,10.0,Variable,6.9,-,N/A,,Scattered Clouds,0,2012-10-04 17:15:00
1:35 PM,69.8,53.6,56,30.30,10.0,WNW,8.1,-,N/A,,Partly Cloudy,300,2012-10-04 17:35:00
1:55 PM,71.6,53.6,53,30.29,10.0,Variable,6.9,-,N/A,,Clear,0,2012-10-04 17:55:00
2:15 PM,69.8,53.6,56,30.28,10.0,Variable,5.8,-,N/A,,Partly Cloudy,0,2012-10-04 18:15:00
2:35 PM,71.6,53.6,53,30.28,10.0,WNW,9.2,-,N/A,,Partly Cloudy,290,2012-10-04 18:35:00
2:55 PM,71.6,51.8,50,30.27,10.0,West,9.2,-,N/A,,Mostly Cloudy,280,2012-10-04 18:55:00
3:15 PM,71.6,53.6,53,30.27,10.0,Variable,6.9,-,N/A,,Mostly Cloudy,0,2012-10-04 19:15:00
3:35 PM,69.8,51.8,53,30.27,10.0,West,5.8,-,N/A,,Partly Cloudy,280,2012-10-04 19:35:00
3:55 PM,71.6,51.8,50,30.27,10.0,Variable,6.9,-,N/A,,Partly Cloudy,0,2012-10-04 19:55:00
4:15 PM,69.8,51.8,53,30.26,10.0,NW,8.1,-,N/A,,Scattered Clouds,320,2012-10-04 20:15:00
4:35 PM,69.8,51.8,53,30.27,10.0,Variable,6.9,-,N/A,,Partly Cloudy,0,2012-10-04 20:35:00
4:55 PM,69.8,51.8,53,30.27,10.0,Variable,3.5,-,N/A,,Clear,0,2012-10-04 20:55:00
5:15 PM,71.6,48.2,43,30.26,10.0,West,8.1,-,N/A,,Clear,280,2012-10-04 21:15:00
5:35 PM,69.8,50.0,49,30.27,10.0,NW,8.1,-,N/A,,Clear,310,2012-10-04 21:35:00
5:55 PM,69.8,51.8,53,30.27,10.0,Variable,3.5,-,N/A,,Clear,0,2012-10-04 21:55:00
6:15 PM,68.0,51.8,56,30.26,10.0,Variable,4.6,-,N/A,,Clear,0,2012-10-04 22:15:00
6:35 PM,66.2,50.0,56,30.26,10.0,WNW,3.5,-,N/A,,Clear,290,2012-10-04 22:35:00
6:55 PM,66.2,50.0,56,30.26,10.0,WNW,3.5,-,N/A,,Clear,300,2012-10-04 22:55:00
7:15 PM,64.4,50.0,59,30.27,10.0,NW,3.5,-,N/A,,Clear,310,2012-10-04 23:15:00
7:35 PM,64.4,50.0,59,30.26,10.0,WNW,3.5,-,N/A,,Clear,300,2012-10-04 23:35:00
7:55 PM,64.4,50.0,59,30.26,10.0,Calm,Calm,-,N/A,,Clear,0,2012-10-04 23:55:00
8:15 PM,62.6,51.8,68,30.26,10.0,Calm,Calm,-,N/A,,Clear,0,2012-10-05 00:15:00
8:35 PM,62.6,51.8,68,30.27,10.0,Calm,Calm,-,N/A,,Clear,0,2012-10-05 00:35:00
8:55 PM,60.8,51.8,72,30.27,10.0,Calm,Calm,-,N/A,,Clear,0,2012-10-05 00:55:00
9:15 PM,57.2,51.8,82,30.27,2.0,Calm,Calm,-,N/A,,Clear,0,2012-10-05 01:15:00
9:35 PM,57.2,53.6,88,30.27,3.0,Calm,Calm,-,N/A,,Clear,0,2012-10-05 01:35:00
9:55 PM,57.2,51.8,82,30.28,2.5,South,3.5,-,N/A,,Clear,180,2012-10-05 01:55:00
10:15 PM,59.0,51.8,77,30.28,4.0,South,3.5,-,N/A,,Clear,180,2012-10-05 02:15:00
10:35 PM,57.2,51.8,82,30.28,4.0,South,3.5,-,N/A,,Clear,190,2012-10-05 02:35:00
10:55 PM,57.2,51.8,82,30.29,6.0,South,3.5,-,N/A,,Clear,180,2012-10-05 02:55:00
11:15 PM,57.2,51.8,82,30.29,2.5,South,3.5,-,N/A,,Clear,170,2012-10-05 03:15:00
11:35 PM,57.2,51.8,82,30.29,2.5,Calm,Calm,-,N/A,,Clear,0,2012-10-05 03:35:00
11:55 PM,55.4,51.8,88,30.28,1.5,Calm,Calm,-,N/A,,Clear,0,2012-10-05 03:55:00